This is the latest recevied weather packets stored in our database for station/object DB0ADS-6. If no packets are shown the sender has not sent any weather packets the latest 10 day(s).
| Time | Temp. | Humidity | Pressure | Rain* | Wind** | Luminosity | Snow |
|---|---|---|---|---|---|---|---|
| 1778002824 | 12.78° C | 93% | 1004.4 hPa | 0.51 mm | - | - | - |
| 1778002522 | 12.22° C | 93% | 1004.4 hPa | 1.02 mm | - | - | - |
| 1778002221 | 12.22° C | 93% | 1004.4 hPa | 1.27 mm | - | - | - |
| 1778001919 | 12.22° C | 93% | 1004.3 hPa | 1.52 mm | - | - | - |
| 1778001617 | 12.22° C | 92% | 1004.3 hPa | 1.78 mm | - | - | - |
| 1778001315 | 12.22° C | 92% | 1004.3 hPa | 2.29 mm | - | - | - |
| 1778001075 | 12.22° C | 92% | 1004.2 hPa | 2.79 mm | - | - | - |
| 1777998961 | 12.22° C | 90% | 1004.9 hPa | 4.57 mm | - | - | - |
| 1777998659 | 12.22° C | 91% | 1005 hPa | 4.32 mm | - | - | - |
| 1777998358 | 12.22° C | 91% | 1005.3 hPa | 4.57 mm | - | - | - |
| 1777997452 | 12.78° C | 91% | 1005.4 hPa | 5.33 mm | - | - | - |
| 1777997151 | 12.78° C | 90% | 1005.4 hPa | 4.83 mm | - | - | - |
| 1777995360 | 13.89° C | 83% | 1004.4 hPa | 2.79 mm | - | - | - |
| 1777995038 | 14.44° C | 81% | 1004.2 hPa | 2.79 mm | - | - | - |
| 1777994736 | 15° C | 77% | 1004.2 hPa | 2.03 mm | - | - | - |
| 1777994133 | 17.78° C | 64% | 1004 hPa | 1.02 mm | - | - | - |
| 1777992624 | 19.44° C | 56% | 1003.5 hPa | 0 mm | - | - | - |
| 1777992322 | 19.44° C | 55% | 1003.5 hPa | 0 mm | - | - | - |
| 1777991174 | 20° C | 54% | 1003.7 hPa | 0 mm | - | - | - |
| 1777990872 | 20° C | 53% | 1003.8 hPa | 0 mm | - | - | - |
| 1777990269 | 20° C | 53% | 1003.8 hPa | 0 mm | - | - | - |
| 1777988459 | 20.56° C | 52% | 1004.1 hPa | 0 mm | - | - | - |
| 1777988157 | 21.11° C | 50% | 1004.2 hPa | 0 mm | - | - | - |
| 1777987858 | 21.11° C | 51% | 1004.2 hPa | 0 mm | - | - | - |
| 1777987573 | 21.11° C | 50% | 1004.2 hPa | 0 mm | - | - | - |
* Rain latest hour (hover to see other rain measurements)
** Current wind speed in m/s (hover to see current wind gust speed)